Location: Ciechanow
(52.8812°N, 20.6195°E)
Time: 11:55:16
(UTC+01:00)

ISS - Pass Details

Date: 31 January 2019
Orbit: 403 x 411 km, 51.6° (Epoch: 22 February)

Event Time Altitude Azimuth Distance (km) Brightness Sun altitude
Rises 18:10:17 0° 266° (W) 2,335 1.9 -16.6°
Reaches altitude 10° 18:12:22 10° 265° (W) 1,476 0.4 -16.9°
Maximum altitude 18:15:40 73° 181° (S) 434 -3.8 -17.4°
Enters shadow 18:16:20 52° 114° (ESE) 520 -3.7 -17.5°
